Year,Month,Day,Hour,Minute,Value (Times are PST for temperature in C)
2010,07,02,00,00,11.20
2010,07,02,00,01,11.20
2010,07,02,00,02,11.20
2010,07,02,00,03,11.10
2010,07,02,00,04,11.10
2010,07,02,00,05,11.10
2010,07,02,00,06,11.10
2010,07,02,00,07,11.10
2010,07,02,00,08,11.00
2010,07,02,00,09,11.00
2010,07,02,00,10,11.00
2010,07,02,00,11,11.00
2010,07,02,00,12,11.00
2010,07,02,00,13,11.00
2010,07,02,00,14,10.90
2010,07,02,00,15,11.00
2010,07,02,00,16,10.90
2010,07,02,00,17,10.90
2010,07,02,00,18,10.90
2010,07,02,00,19,10.90
2010,07,02,00,20,10.90
2010,07,02,00,21,10.90
2010,07,02,00,22,10.90
2010,07,02,00,23,10.90
2010,07,02,00,24,10.90
2010,07,02,00,25,10.90
2010,07,02,00,26,10.90
2010,07,02,00,27,10.90
2010,07,02,00,28,10.90
2010,07,02,00,29,10.90
2010,07,02,00,30,10.90
2010,07,02,00,31,10.90
2010,07,02,00,32,10.90
2010,07,02,00,33,10.80
2010,07,02,00,34,10.90
2010,07,02,00,35,10.80
2010,07,02,00,36,10.80
2010,07,02,00,37,10.80
2010,07,02,00,38,10.80
2010,07,02,00,39,10.80
2010,07,02,00,40,10.80
2010,07,02,00,41,10.80
2010,07,02,00,42,10.80
2010,07,02,00,43,10.80
2010,07,02,00,44,10.80
2010,07,02,00,45,10.80
2010,07,02,00,46,10.80
2010,07,02,00,47,10.80
2010,07,02,00,48,10.80
2010,07,02,00,49,10.80
2010,07,02,00,50,10.80
2010,07,02,00,51,10.80
2010,07,02,00,52,10.70
2010,07,02,00,53,10.70
2010,07,02,00,54,10.70
2010,07,02,00,55,10.70
2010,07,02,00,56,10.70
2010,07,02,00,57,10.70
2010,07,02,00,58,10.70
2010,07,02,00,59,10.70
2010,07,02,01,00,10.70
2010,07,02,01,01,10.70
2010,07,02,01,02,10.70
2010,07,02,01,03,10.60
2010,07,02,01,04,10.70
2010,07,02,01,05,10.60
2010,07,02,01,06,10.60
2010,07,02,01,07,10.60
2010,07,02,01,08,10.60
2010,07,02,01,09,10.60
2010,07,02,01,10,10.60
2010,07,02,01,11,10.60
2010,07,02,01,12,10.60
2010,07,02,01,13,10.60
2010,07,02,01,14,10.60
2010,07,02,01,15,10.60
2010,07,02,01,16,10.60
2010,07,02,01,17,10.60
2010,07,02,01,18,10.60
2010,07,02,01,19,10.60
2010,07,02,01,20,10.60
2010,07,02,01,21,10.60
2010,07,02,01,22,10.60
2010,07,02,01,23,10.60
2010,07,02,01,24,10.60
2010,07,02,01,25,10.60
2010,07,02,01,26,10.60
2010,07,02,01,27,10.60
2010,07,02,01,28,10.60
2010,07,02,01,29,10.60
2010,07,02,01,30,10.60
2010,07,02,01,31,10.60
2010,07,02,01,32,10.60
2010,07,02,01,33,10.60
2010,07,02,01,34,10.60
2010,07,02,01,35,10.60
2010,07,02,01,36,10.60
2010,07,02,01,37,10.60
2010,07,02,01,38,10.60
2010,07,02,01,39,10.60
2010,07,02,01,40,10.60
2010,07,02,01,41,10.50
2010,07,02,01,42,10.60
2010,07,02,01,43,10.60
2010,07,02,01,44,10.50
2010,07,02,01,45,10.50
2010,07,02,01,46,10.50
2010,07,02,01,47,10.50
2010,07,02,01,48,10.50
2010,07,02,01,49,10.50
2010,07,02,01,50,10.50
2010,07,02,01,51,10.50
2010,07,02,01,52,10.50
2010,07,02,01,53,10.50
2010,07,02,01,54,10.50
2010,07,02,01,55,10.50
2010,07,02,01,56,10.50
2010,07,02,01,57,10.50
2010,07,02,01,58,10.50
2010,07,02,01,59,10.50
2010,07,02,02,00,10.50
2010,07,02,02,01,10.50
2010,07,02,02,02,10.40
2010,07,02,02,03,10.40
2010,07,02,02,04,10.40
2010,07,02,02,05,10.40
2010,07,02,02,06,10.40
2010,07,02,02,07,10.40
2010,07,02,02,08,10.40
2010,07,02,02,09,10.40
2010,07,02,02,10,10.30
2010,07,02,02,11,10.30
2010,07,02,02,12,10.30
2010,07,02,02,13,10.30
2010,07,02,02,14,10.30
2010,07,02,02,15,10.30
2010,07,02,02,16,10.30
2010,07,02,02,17,10.40
2010,07,02,02,18,10.40
2010,07,02,02,19,10.40
2010,07,02,02,20,10.40
2010,07,02,02,21,10.40
2010,07,02,02,22,10.40
2010,07,02,02,23,10.40
2010,07,02,02,24,10.40
2010,07,02,02,25,10.40
2010,07,02,02,26,10.40
2010,07,02,02,27,10.40
2010,07,02,02,28,10.40
2010,07,02,02,29,10.40
2010,07,02,02,30,10.40
2010,07,02,02,31,10.40
2010,07,02,02,32,10.40
2010,07,02,02,33,10.40
2010,07,02,02,34,10.30
2010,07,02,02,35,10.30
2010,07,02,02,36,10.30
2010,07,02,02,37,10.30
2010,07,02,02,38,10.30
2010,07,02,02,39,10.30
2010,07,02,02,40,10.30
2010,07,02,02,41,10.30
2010,07,02,02,42,10.30
2010,07,02,02,43,10.20
2010,07,02,02,44,10.20
2010,07,02,02,45,10.20
2010,07,02,02,46,10.20
2010,07,02,02,47,10.20
2010,07,02,02,48,10.20
2010,07,02,02,49,10.20
2010,07,02,02,50,10.20
2010,07,02,02,51,10.20
2010,07,02,02,52,10.20
2010,07,02,02,53,10.20
2010,07,02,02,54,10.20
2010,07,02,02,55,10.10
2010,07,02,02,56,10.10
2010,07,02,02,57,10.10
2010,07,02,02,58,10.10
2010,07,02,02,59,10.10
2010,07,02,03,00,10.10
2010,07,02,03,01,10.10
2010,07,02,03,02,10.10
2010,07,02,03,03,10.10
2010,07,02,03,04,10.10
2010,07,02,03,05,10.00
2010,07,02,03,06,10.00
2010,07,02,03,07,10.00
2010,07,02,03,08,10.00
2010,07,02,03,09,10.00
2010,07,02,03,10,9.90
2010,07,02,03,11,9.90
2010,07,02,03,12,9.90
2010,07,02,03,13,9.90
2010,07,02,03,14,9.90
2010,07,02,03,15,9.80
2010,07,02,03,16,9.80
2010,07,02,03,17,9.80
2010,07,02,03,18,9.80
2010,07,02,03,19,9.80
2010,07,02,03,20,9.80
2010,07,02,03,21,9.80
2010,07,02,03,22,9.80
2010,07,02,03,23,9.80
2010,07,02,03,24,9.70
2010,07,02,03,25,9.70
2010,07,02,03,26,9.70
2010,07,02,03,27,9.70
2010,07,02,03,28,9.70
2010,07,02,03,29,9.70
2010,07,02,03,30,9.70
2010,07,02,03,31,9.70
2010,07,02,03,32,9.70
2010,07,02,03,33,9.70
2010,07,02,03,34,9.60
2010,07,02,03,35,9.60
2010,07,02,03,36,9.60
2010,07,02,03,37,9.60
2010,07,02,03,38,9.60
2010,07,02,03,39,9.60
2010,07,02,03,40,9.60
2010,07,02,03,41,9.60
2010,07,02,03,42,9.60
2010,07,02,03,43,9.50
2010,07,02,03,44,9.50
2010,07,02,03,45,9.50
2010,07,02,03,46,9.50
2010,07,02,03,47,9.50
2010,07,02,03,48,9.50
2010,07,02,03,49,9.40
2010,07,02,03,50,9.40
2010,07,02,03,51,9.40
2010,07,02,03,52,9.40
2010,07,02,03,53,9.40
2010,07,02,03,54,9.40
2010,07,02,03,55,9.40
2010,07,02,03,56,9.40
2010,07,02,03,57,9.40
2010,07,02,03,58,9.40
2010,07,02,03,59,9.40
2010,07,02,04,00,9.40
2010,07,02,04,01,9.30
2010,07,02,04,02,9.30
2010,07,02,04,03,9.30
2010,07,02,04,04,9.30
2010,07,02,04,05,9.30
2010,07,02,04,06,9.30
2010,07,02,04,07,9.30
2010,07,02,04,08,9.30
2010,07,02,04,09,9.30
2010,07,02,04,10,9.30
2010,07,02,04,11,9.20
2010,07,02,04,12,9.20
2010,07,02,04,13,9.20
2010,07,02,04,14,9.20
2010,07,02,04,15,9.20
2010,07,02,04,16,9.20
2010,07,02,04,17,9.20
2010,07,02,04,18,9.10
2010,07,02,04,19,9.10
2010,07,02,04,20,9.10
2010,07,02,04,21,9.10
2010,07,02,04,22,9.10
2010,07,02,04,23,9.10
2010,07,02,04,24,9.00
2010,07,02,04,25,9.00
2010,07,02,04,26,9.00
2010,07,02,04,27,9.00
2010,07,02,04,28,9.00
2010,07,02,04,29,8.90
2010,07,02,04,30,8.90
2010,07,02,04,31,8.90
2010,07,02,04,32,8.90
2010,07,02,04,33,8.90
2010,07,02,04,34,8.80
2010,07,02,04,35,8.80
2010,07,02,04,36,8.80
2010,07,02,04,37,8.80
2010,07,02,04,38,8.80
2010,07,02,04,39,8.80
2010,07,02,04,40,8.80
2010,07,02,04,41,8.80
2010,07,02,04,42,8.80
2010,07,02,04,43,8.80
2010,07,02,04,44,8.80
2010,07,02,04,45,8.80
2010,07,02,04,46,8.80
2010,07,02,04,47,8.80
2010,07,02,04,48,8.80
2010,07,02,04,49,8.70
2010,07,02,04,50,8.70
2010,07,02,04,51,8.70
2010,07,02,04,52,8.70
2010,07,02,04,53,8.70
2010,07,02,04,54,8.70
2010,07,02,04,55,8.70
2010,07,02,04,56,8.70
2010,07,02,04,57,8.60
2010,07,02,04,58,8.60
2010,07,02,04,59,8.60
2010,07,02,05,00,8.60
2010,07,02,05,01,8.60
2010,07,02,05,02,8.60
2010,07,02,05,03,8.60
2010,07,02,05,04,8.60
2010,07,02,05,05,8.60
2010,07,02,05,06,8.60
2010,07,02,05,07,8.50
2010,07,02,05,08,8.50
2010,07,02,05,09,8.50
2010,07,02,05,10,8.50
2010,07,02,05,11,8.50
2010,07,02,05,12,8.50
2010,07,02,05,13,8.40
2010,07,02,05,14,8.40
2010,07,02,05,15,8.40
2010,07,02,05,16,8.40
2010,07,02,05,17,8.40
2010,07,02,05,18,8.40
2010,07,02,05,19,8.40
2010,07,02,05,20,8.40
2010,07,02,05,21,8.30
2010,07,02,05,22,8.30
2010,07,02,05,23,8.30
2010,07,02,05,24,8.30
2010,07,02,05,25,8.30
2010,07,02,05,26,8.30
2010,07,02,05,27,8.30
2010,07,02,05,28,8.30
2010,07,02,05,29,8.30
2010,07,02,05,30,8.30
2010,07,02,05,31,8.30
2010,07,02,05,32,8.30
2010,07,02,05,33,8.30
2010,07,02,05,34,8.30
2010,07,02,05,35,8.30
2010,07,02,05,36,8.30
2010,07,02,05,37,8.30
2010,07,02,05,38,8.30
2010,07,02,05,39,8.30
2010,07,02,05,40,8.30
2010,07,02,05,41,8.30
2010,07,02,05,42,8.30
2010,07,02,05,43,8.30
2010,07,02,05,44,8.30
2010,07,02,05,45,8.30
2010,07,02,05,46,8.30
2010,07,02,05,47,8.30
2010,07,02,05,48,8.30
2010,07,02,05,49,8.30
2010,07,02,05,50,8.30
2010,07,02,05,51,8.30
2010,07,02,05,52,8.20
2010,07,02,05,53,8.20
2010,07,02,05,54,8.20
2010,07,02,05,55,8.20
2010,07,02,05,56,8.20
2010,07,02,05,57,8.20
2010,07,02,05,58,8.20
2010,07,02,05,59,8.20
2010,07,02,06,00,8.20
2010,07,02,06,01,8.20
2010,07,02,06,02,8.20
2010,07,02,06,03,8.20
2010,07,02,06,04,8.20
2010,07,02,06,05,8.20
2010,07,02,06,06,8.20
2010,07,02,06,07,8.20
2010,07,02,06,08,8.20
2010,07,02,06,09,8.20
2010,07,02,06,10,8.20
2010,07,02,06,11,8.30
2010,07,02,06,12,8.30
2010,07,02,06,13,8.30
2010,07,02,06,14,8.30
2010,07,02,06,15,8.30
2010,07,02,06,16,8.30
2010,07,02,06,17,8.30
2010,07,02,06,18,8.40
2010,07,02,06,19,8.40
2010,07,02,06,20,8.40
2010,07,02,06,21,8.40
2010,07,02,06,22,8.40
2010,07,02,06,23,8.40
2010,07,02,06,24,8.50
2010,07,02,06,25,8.50
2010,07,02,06,26,8.50
2010,07,02,06,27,8.60
2010,07,02,06,28,8.60
2010,07,02,06,29,8.60
2010,07,02,06,30,8.60
2010,07,02,06,31,8.60
2010,07,02,06,32,8.60
2010,07,02,06,33,8.70
2010,07,02,06,34,8.70
2010,07,02,06,35,8.70
2010,07,02,06,36,8.70
2010,07,02,06,37,8.70
2010,07,02,06,38,8.70
2010,07,02,06,39,8.70
2010,07,02,06,40,8.80
2010,07,02,06,41,8.80
2010,07,02,06,42,8.80
2010,07,02,06,43,8.80
2010,07,02,06,44,8.80
2010,07,02,06,45,8.80
2010,07,02,06,46,8.90
2010,07,02,06,47,8.90
2010,07,02,06,48,8.90
2010,07,02,06,49,8.90
2010,07,02,06,50,8.90
2010,07,02,06,51,9.00
2010,07,02,06,52,9.00
2010,07,02,06,53,9.00
2010,07,02,06,54,9.10
2010,07,02,06,55,9.10
2010,07,02,06,56,9.10
2010,07,02,06,57,9.10
2010,07,02,06,58,9.20
2010,07,02,06,59,9.20
2010,07,02,07,00,9.20
2010,07,02,07,01,9.20
2010,07,02,07,02,9.20
2010,07,02,07,03,9.30
2010,07,02,07,04,9.30
2010,07,02,07,05,9.30
2010,07,02,07,06,9.30
2010,07,02,07,07,9.40
2010,07,02,07,08,9.40
2010,07,02,07,09,9.40
2010,07,02,07,10,9.50
2010,07,02,07,11,9.50
2010,07,02,07,12,9.60
2010,07,02,07,13,9.60
2010,07,02,07,14,9.60
2010,07,02,07,15,9.70
2010,07,02,07,16,9.70
2010,07,02,07,17,9.70
2010,07,02,07,18,9.80
2010,07,02,07,19,9.80
2010,07,02,07,20,9.80
2010,07,02,07,21,9.90
2010,07,02,07,22,9.90
2010,07,02,07,23,9.90
2010,07,02,07,24,10.00
2010,07,02,07,25,10.00
2010,07,02,07,26,10.00
2010,07,02,07,27,10.10
2010,07,02,07,28,10.10
2010,07,02,07,29,10.10
2010,07,02,07,30,10.10
2010,07,02,07,31,10.20
2010,07,02,07,32,10.20
2010,07,02,07,33,10.20
2010,07,02,07,34,10.20
2010,07,02,07,35,10.30
2010,07,02,07,36,10.30
2010,07,02,07,37,10.30
2010,07,02,07,38,10.30
2010,07,02,07,39,10.40
2010,07,02,07,40,10.40
2010,07,02,07,41,10.40
2010,07,02,07,42,10.40
2010,07,02,07,43,10.50
2010,07,02,07,44,10.50
2010,07,02,07,45,10.50
2010,07,02,07,46,10.60
2010,07,02,07,47,10.60
2010,07,02,07,48,10.60
2010,07,02,07,49,10.70
2010,07,02,07,50,10.70
2010,07,02,07,51,10.70
2010,07,02,07,52,10.70
2010,07,02,07,53,10.80
2010,07,02,07,54,10.80
2010,07,02,07,55,10.80
2010,07,02,07,56,10.80
2010,07,02,07,57,10.80
2010,07,02,07,58,10.90
2010,07,02,07,59,10.90
2010,07,02,08,00,10.90
2010,07,02,08,01,10.90
2010,07,02,08,02,11.00
2010,07,02,08,03,11.00
2010,07,02,08,04,11.00
2010,07,02,08,05,11.10
2010,07,02,08,06,11.10
2010,07,02,08,07,11.10
2010,07,02,08,08,11.20
2010,07,02,08,09,11.20
2010,07,02,08,10,11.30
2010,07,02,08,11,11.30
2010,07,02,08,12,11.40
2010,07,02,08,13,11.50
2010,07,02,08,14,11.60
2010,07,02,08,15,11.60
2010,07,02,08,16,11.80
2010,07,02,08,17,11.80
2010,07,02,08,18,12.00
2010,07,02,08,19,12.10
2010,07,02,08,20,12.20
2010,07,02,08,21,12.30
2010,07,02,08,22,12.40
2010,07,02,08,23,12.60
2010,07,02,08,24,12.70
2010,07,02,08,25,12.80
2010,07,02,08,26,12.90
2010,07,02,08,27,13.10
2010,07,02,08,28,13.20
2010,07,02,08,29,13.30
2010,07,02,08,30,13.40
2010,07,02,08,31,13.40
2010,07,02,08,32,13.50
2010,07,02,08,33,13.60
2010,07,02,08,34,13.70
2010,07,02,08,35,13.80
2010,07,02,08,36,13.90
2010,07,02,08,37,13.90
2010,07,02,08,38,14.00
2010,07,02,08,39,14.00
2010,07,02,08,40,14.00
2010,07,02,08,41,14.10
2010,07,02,08,42,14.10
2010,07,02,08,43,14.10
2010,07,02,08,44,14.10
2010,07,02,08,45,14.20
2010,07,02,08,46,14.30
2010,07,02,08,47,14.30
2010,07,02,08,48,14.30
2010,07,02,08,49,14.20
2010,07,02,08,50,14.20
2010,07,02,08,51,14.20
2010,07,02,08,52,14.10
2010,07,02,08,53,14.10
2010,07,02,08,54,14.00
2010,07,02,08,55,14.00
2010,07,02,08,56,14.00
2010,07,02,08,57,14.00
2010,07,02,08,58,14.00
2010,07,02,08,59,14.00
2010,07,02,09,00,14.00
2010,07,02,09,01,14.00
2010,07,02,09,02,14.00
2010,07,02,09,03,14.00
2010,07,02,09,04,14.10
2010,07,02,09,05,14.10
2010,07,02,09,06,14.20
2010,07,02,09,07,14.30
2010,07,02,09,08,14.30
2010,07,02,09,09,14.40
2010,07,02,09,10,14.50
2010,07,02,09,11,14.50
2010,07,02,09,12,14.50
2010,07,02,09,13,14.60
2010,07,02,09,14,14.70
2010,07,02,09,15,14.80
2010,07,02,09,16,14.90
2010,07,02,09,17,15.10
2010,07,02,09,18,15.20
2010,07,02,09,19,15.30
2010,07,02,09,20,15.50
2010,07,02,09,21,15.60
2010,07,02,09,22,15.70
2010,07,02,09,23,15.80
2010,07,02,09,24,15.90
2010,07,02,09,25,16.00
2010,07,02,09,26,16.00
2010,07,02,09,27,16.10
2010,07,02,09,28,16.10
2010,07,02,09,29,16.20
2010,07,02,09,30,16.30
2010,07,02,09,31,16.30
2010,07,02,09,32,16.40
2010,07,02,09,33,16.50
2010,07,02,09,34,16.60
2010,07,02,09,35,16.60
2010,07,02,09,36,16.70
2010,07,02,09,37,16.70
2010,07,02,09,38,16.80
2010,07,02,09,39,16.80
2010,07,02,09,40,16.80
2010,07,02,09,41,16.80
2010,07,02,09,42,16.80
2010,07,02,09,43,16.70
2010,07,02,09,44,16.60
2010,07,02,09,45,16.50
2010,07,02,09,46,16.40
2010,07,02,09,47,16.40
2010,07,02,09,48,16.30
2010,07,02,09,49,16.20
2010,07,02,09,50,16.20
2010,07,02,09,51,16.20
2010,07,02,09,52,16.20
2010,07,02,09,53,16.20
2010,07,02,09,54,16.20
2010,07,02,09,55,16.20
2010,07,02,09,56,16.20
2010,07,02,09,57,16.20
2010,07,02,09,58,16.10
2010,07,02,09,59,16.10
2010,07,02,10,00,16.00
2010,07,02,10,01,15.90
2010,07,02,10,02,15.80
2010,07,02,10,03,15.80
2010,07,02,10,04,15.70
2010,07,02,10,05,15.70
2010,07,02,10,06,15.70
2010,07,02,10,07,15.70
2010,07,02,10,08,15.70
2010,07,02,10,09,15.70
2010,07,02,10,10,15.70
2010,07,02,10,11,15.70
2010,07,02,10,12,15.70
2010,07,02,10,13,15.70
2010,07,02,10,14,15.70
2010,07,02,10,15,15.70
2010,07,02,10,16,15.70
2010,07,02,10,17,15.80
2010,07,02,10,18,15.80
2010,07,02,10,19,15.90
2010,07,02,10,20,15.90
2010,07,02,10,21,16.00
2010,07,02,10,22,16.10
2010,07,02,10,23,16.20
2010,07,02,10,24,16.30
2010,07,02,10,25,16.40
2010,07,02,10,26,16.40
2010,07,02,10,27,16.40
2010,07,02,10,28,16.40
2010,07,02,10,29,16.40
2010,07,02,10,30,16.50
2010,07,02,10,31,16.50
2010,07,02,10,32,16.40
2010,07,02,10,33,16.40
2010,07,02,10,34,16.40
2010,07,02,10,35,16.40
2010,07,02,10,36,16.40
2010,07,02,10,37,16.30
2010,07,02,10,38,16.30
2010,07,02,10,39,16.30
2010,07,02,10,40,16.30
2010,07,02,10,41,16.30
2010,07,02,10,42,16.30
2010,07,02,10,43,16.30
2010,07,02,10,44,16.40
2010,07,02,10,45,16.40
2010,07,02,10,46,16.40
2010,07,02,10,47,16.40
2010,07,02,10,48,16.40
2010,07,02,10,49,16.50
2010,07,02,10,50,16.50
2010,07,02,10,51,16.40
2010,07,02,10,52,16.40
2010,07,02,10,53,16.40
2010,07,02,10,54,16.50
2010,07,02,10,55,16.50
2010,07,02,10,56,16.60
2010,07,02,10,57,16.60
2010,07,02,10,58,16.60
2010,07,02,10,59,16.70
2010,07,02,11,00,16.70
2010,07,02,11,01,16.80
2010,07,02,11,02,16.80
2010,07,02,11,03,16.90
2010,07,02,11,04,17.00
2010,07,02,11,05,17.10
2010,07,02,11,06,17.20
2010,07,02,11,07,17.30
2010,07,02,11,08,17.30
2010,07,02,11,09,17.30
2010,07,02,11,10,17.40
2010,07,02,11,11,17.40
2010,07,02,11,12,17.50
2010,07,02,11,13,17.60
2010,07,02,11,14,17.60
2010,07,02,11,15,17.80
2010,07,02,11,16,17.90
2010,07,02,11,17,18.00
2010,07,02,11,18,18.10
2010,07,02,11,19,18.30
2010,07,02,11,20,18.30
2010,07,02,11,21,18.50
2010,07,02,11,22,18.60
2010,07,02,11,23,18.60
2010,07,02,11,24,18.70
2010,07,02,11,25,18.70
2010,07,02,11,26,18.80
2010,07,02,11,27,18.80
2010,07,02,11,28,18.90
2010,07,02,11,29,18.90
2010,07,02,11,30,18.80
2010,07,02,11,31,18.80
2010,07,02,11,32,18.80
2010,07,02,11,33,18.90
2010,07,02,11,34,18.90
2010,07,02,11,35,19.00
2010,07,02,11,36,19.00
2010,07,02,11,37,19.00
2010,07,02,11,38,19.00
2010,07,02,11,39,19.00
2010,07,02,11,40,18.90
2010,07,02,11,41,18.80
2010,07,02,11,42,18.80
2010,07,02,11,43,18.80
2010,07,02,11,44,18.80
2010,07,02,11,45,18.80
2010,07,02,11,46,18.80
2010,07,02,11,47,18.90
2010,07,02,11,48,18.90
2010,07,02,11,49,19.00
2010,07,02,11,50,19.10
2010,07,02,11,51,19.20
2010,07,02,11,52,19.20
2010,07,02,11,53,19.20
2010,07,02,11,54,19.20
2010,07,02,11,55,19.30
2010,07,02,11,56,19.20
2010,07,02,11,57,19.20
2010,07,02,11,58,19.10
2010,07,02,11,59,19.10
2010,07,02,12,00,19.10
2010,07,02,12,01,19.10
2010,07,02,12,02,19.10
2010,07,02,12,03,19.10
2010,07,02,12,04,19.10
2010,07,02,12,05,19.10
2010,07,02,12,06,18.90
2010,07,02,12,07,18.80
2010,07,02,12,08,18.70
2010,07,02,12,09,18.50
2010,07,02,12,10,18.30
2010,07,02,12,11,18.30
2010,07,02,12,12,18.20
2010,07,02,12,13,18.20
2010,07,02,12,14,18.20
2010,07,02,12,15,18.20
2010,07,02,12,16,18.20
2010,07,02,12,17,18.20
2010,07,02,12,18,18.20
2010,07,02,12,19,18.20
2010,07,02,12,20,18.10
2010,07,02,12,21,18.10
2010,07,02,12,22,18.00
2010,07,02,12,23,18.00
2010,07,02,12,24,18.00
2010,07,02,12,25,18.00
2010,07,02,12,26,18.10
2010,07,02,12,27,18.10
2010,07,02,12,28,18.10
2010,07,02,12,29,18.10
2010,07,02,12,30,18.00
2010,07,02,12,31,17.90
2010,07,02,12,32,17.80
2010,07,02,12,33,17.80
2010,07,02,12,34,17.70
2010,07,02,12,35,17.70
2010,07,02,12,36,17.60
2010,07,02,12,37,17.50
2010,07,02,12,38,17.50
2010,07,02,12,39,17.40
2010,07,02,12,40,17.30
2010,07,02,12,41,17.30
2010,07,02,12,42,17.30
2010,07,02,12,43,17.20
2010,07,02,12,44,17.20
2010,07,02,12,45,17.10
2010,07,02,12,46,17.10
2010,07,02,12,47,17.00
2010,07,02,12,48,16.90
2010,07,02,12,49,16.90
2010,07,02,12,50,16.80
2010,07,02,12,51,16.80
2010,07,02,12,52,16.80
2010,07,02,12,53,16.80
2010,07,02,12,54,16.80
2010,07,02,12,55,16.80
2010,07,02,12,56,16.80
2010,07,02,12,57,16.80
2010,07,02,12,58,16.80
2010,07,02,12,59,16.70
2010,07,02,13,00,16.70
2010,07,02,13,01,16.70
2010,07,02,13,02,16.70
2010,07,02,13,03,16.60
2010,07,02,13,04,16.60
2010,07,02,13,05,16.50
2010,07,02,13,06,16.40
2010,07,02,13,07,16.40
2010,07,02,13,08,16.30
2010,07,02,13,09,16.30
2010,07,02,13,10,16.30
2010,07,02,13,11,16.20
2010,07,02,13,12,16.20
2010,07,02,13,13,16.10
2010,07,02,13,14,16.10
2010,07,02,13,15,16.00
2010,07,02,13,16,16.00
2010,07,02,13,17,16.00
2010,07,02,13,18,16.00
2010,07,02,13,19,16.00
2010,07,02,13,20,16.00
2010,07,02,13,21,16.00
2010,07,02,13,22,16.10
2010,07,02,13,23,16.10
2010,07,02,13,24,16.10
2010,07,02,13,25,16.10
2010,07,02,13,26,16.10
2010,07,02,13,27,16.10
2010,07,02,13,28,16.10
2010,07,02,13,29,16.00
2010,07,02,13,30,15.90
2010,07,02,13,31,15.90
2010,07,02,13,32,15.80
2010,07,02,13,33,15.80
2010,07,02,13,34,15.80
2010,07,02,13,35,15.80
2010,07,02,13,36,15.80
2010,07,02,13,37,15.70
2010,07,02,13,38,15.70
2010,07,02,13,39,15.70
2010,07,02,13,40,15.70
2010,07,02,13,41,15.70
2010,07,02,13,42,15.70
2010,07,02,13,43,15.70
2010,07,02,13,44,15.70
2010,07,02,13,45,15.70
2010,07,02,13,46,15.70
2010,07,02,13,47,15.70
2010,07,02,13,48,15.70
2010,07,02,13,49,15.70
2010,07,02,13,50,15.70
2010,07,02,13,51,15.70
2010,07,02,13,52,15.80
2010,07,02,13,53,15.80
2010,07,02,13,54,15.80
2010,07,02,13,55,15.80
2010,07,02,13,56,15.80
2010,07,02,13,57,15.90
2010,07,02,13,58,15.90
2010,07,02,13,59,16.00
2010,07,02,14,00,16.10
2010,07,02,14,01,16.20
2010,07,02,14,02,16.30
2010,07,02,14,03,16.40
2010,07,02,14,04,16.50
2010,07,02,14,05,16.60
2010,07,02,14,06,16.60
2010,07,02,14,07,16.60
2010,07,02,14,08,16.70
2010,07,02,14,09,16.70
2010,07,02,14,10,16.80
2010,07,02,14,11,16.80
2010,07,02,14,12,16.80
2010,07,02,14,13,16.80
2010,07,02,14,14,16.90
2010,07,02,14,15,16.90
2010,07,02,14,16,17.00
2010,07,02,14,17,17.00
2010,07,02,14,18,17.10
2010,07,02,14,19,17.20
2010,07,02,14,20,17.30
2010,07,02,14,21,17.30
2010,07,02,14,22,17.40
2010,07,02,14,23,17.40
2010,07,02,14,24,17.50
2010,07,02,14,25,17.50
2010,07,02,14,26,17.50
2010,07,02,14,27,17.50
2010,07,02,14,28,17.50
2010,07,02,14,29,17.40
2010,07,02,14,30,17.30
2010,07,02,14,31,17.20
2010,07,02,14,32,17.00
2010,07,02,14,33,16.90
2010,07,02,14,34,16.80
2010,07,02,14,35,16.70
2010,07,02,14,36,16.70
2010,07,02,14,37,16.70
2010,07,02,14,38,16.70
2010,07,02,14,39,16.70
2010,07,02,14,40,16.70
2010,07,02,14,41,16.70
2010,07,02,14,42,16.70
2010,07,02,14,43,16.70
2010,07,02,14,44,16.70
2010,07,02,14,45,16.80
2010,07,02,14,46,16.80
2010,07,02,14,47,16.80
2010,07,02,14,48,16.80
2010,07,02,14,49,16.80
2010,07,02,14,50,16.70
2010,07,02,14,51,16.70
2010,07,02,14,52,16.70
2010,07,02,14,53,16.70
2010,07,02,14,54,16.70
2010,07,02,14,55,16.60
2010,07,02,14,56,16.60
2010,07,02,14,57,16.50
2010,07,02,14,58,16.50
2010,07,02,14,59,16.40
2010,07,02,15,00,16.40
2010,07,02,15,01,16.40
2010,07,02,15,02,16.40
2010,07,02,15,03,16.50
2010,07,02,15,04,16.60
2010,07,02,15,05,16.60
2010,07,02,15,06,16.60
2010,07,02,15,07,16.60
2010,07,02,15,08,16.60
2010,07,02,15,09,16.60
2010,07,02,15,10,16.60
2010,07,02,15,11,16.60
2010,07,02,15,12,16.60
2010,07,02,15,13,16.50
2010,07,02,15,14,16.50
2010,07,02,15,15,16.50
2010,07,02,15,16,16.50
2010,07,02,15,17,16.50
2010,07,02,15,18,16.60
2010,07,02,15,19,16.60
2010,07,02,15,20,16.60
2010,07,02,15,21,16.60
2010,07,02,15,22,16.60
2010,07,02,15,23,16.70
2010,07,02,15,24,16.70
2010,07,02,15,25,16.70
2010,07,02,15,26,16.60
2010,07,02,15,27,16.50
2010,07,02,15,28,16.40
2010,07,02,15,29,16.30
2010,07,02,15,30,16.30
2010,07,02,15,31,16.30
2010,07,02,15,32,16.30
2010,07,02,15,33,16.40
2010,07,02,15,34,16.40
2010,07,02,15,35,16.50
2010,07,02,15,36,16.60
2010,07,02,15,37,16.60
2010,07,02,15,38,16.70
2010,07,02,15,39,16.70
2010,07,02,15,40,16.70
2010,07,02,15,41,16.70
2010,07,02,15,42,16.70
2010,07,02,15,43,16.70
2010,07,02,15,44,16.70
2010,07,02,15,45,16.60
2010,07,02,15,46,16.60
2010,07,02,15,47,16.50
2010,07,02,15,48,16.50
2010,07,02,15,49,16.50
2010,07,02,15,50,16.40
2010,07,02,15,51,16.40
2010,07,02,15,52,16.30
2010,07,02,15,53,16.20
2010,07,02,15,54,16.10
2010,07,02,15,55,16.10
2010,07,02,15,56,16.00
2010,07,02,15,57,16.00
2010,07,02,15,58,16.00
2010,07,02,15,59,16.10
2010,07,02,16,00,16.10
2010,07,02,16,01,16.10
2010,07,02,16,02,16.10
2010,07,02,16,03,16.10
2010,07,02,16,04,16.00
2010,07,02,16,05,15.90
2010,07,02,16,06,15.80
2010,07,02,16,07,15.80
2010,07,02,16,08,15.70
2010,07,02,16,09,15.70
2010,07,02,16,10,15.60
2010,07,02,16,11,15.50
2010,07,02,16,12,15.50
2010,07,02,16,13,15.40
2010,07,02,16,14,15.40
2010,07,02,16,15,15.30
2010,07,02,16,16,15.30
2010,07,02,16,17,15.30
2010,07,02,16,18,15.30
2010,07,02,16,19,15.30
2010,07,02,16,20,15.30
2010,07,02,16,21,15.30
2010,07,02,16,22,15.30
2010,07,02,16,23,15.30
2010,07,02,16,24,15.30
2010,07,02,16,25,15.30
2010,07,02,16,26,15.30
2010,07,02,16,27,15.30
2010,07,02,16,28,15.30
2010,07,02,16,29,15.20
2010,07,02,16,30,15.20
2010,07,02,16,31,15.20
2010,07,02,16,32,15.30
2010,07,02,16,33,15.30
2010,07,02,16,34,15.30
2010,07,02,16,35,15.30
2010,07,02,16,36,15.40
2010,07,02,16,37,15.40
2010,07,02,16,38,15.50
2010,07,02,16,39,15.60
2010,07,02,16,40,15.70
2010,07,02,16,41,15.70
2010,07,02,16,42,15.80
2010,07,02,16,43,15.80
2010,07,02,16,44,15.90
2010,07,02,16,45,15.90
2010,07,02,16,46,15.90
2010,07,02,16,47,15.90
2010,07,02,16,48,15.90
2010,07,02,16,49,16.00
2010,07,02,16,50,16.00
2010,07,02,16,51,16.00
2010,07,02,16,52,16.00
2010,07,02,16,53,15.90
2010,07,02,16,54,15.90
2010,07,02,16,55,16.00
2010,07,02,16,56,15.90
2010,07,02,16,57,16.00
2010,07,02,16,58,16.00
2010,07,02,16,59,16.10
2010,07,02,17,00,16.10
2010,07,02,17,01,16.10
2010,07,02,17,02,16.00
2010,07,02,17,03,15.90
2010,07,02,17,04,15.80
2010,07,02,17,05,15.60
2010,07,02,17,06,15.50
2010,07,02,17,07,15.40
2010,07,02,17,08,15.40
2010,07,02,17,09,15.30
2010,07,02,17,10,15.40
2010,07,02,17,11,15.40
2010,07,02,17,12,15.40
2010,07,02,17,13,15.40
2010,07,02,17,14,15.40
2010,07,02,17,15,15.40
2010,07,02,17,16,15.30
2010,07,02,17,17,15.30
2010,07,02,17,18,15.20
2010,07,02,17,19,15.20
2010,07,02,17,20,15.10
2010,07,02,17,21,15.10
2010,07,02,17,22,15.10
2010,07,02,17,23,15.00
2010,07,02,17,24,15.00
2010,07,02,17,25,14.90
2010,07,02,17,26,14.90
2010,07,02,17,27,14.90
2010,07,02,17,28,14.90
2010,07,02,17,29,14.90
2010,07,02,17,30,14.90